Location: Austin
(30.3000°N, 97.7500°W)
Time: 12:09:42
(UTC-05:00)

Cosmos 1408 Rocket - Pass Details

Date: 26 May 2023
Orbit: 598 x 630 km, 82.6° (Epoch: 31 May)

Event Time Altitude Azimuth Distance (km) Brightness Sun altitude
Rises 21:21:45 0° 359° (N) 2,859 7.5 -11.5°
Reaches altitude 10° 21:24:00 10° 4° (N) 1,957 6.5 -11.9°
Maximum altitude 21:28:15 56° 82° (E) 725 3.6 -12.7°
Enters shadow 21:31:44 15° 159° (SSE) 1,655 5.3 -13.3°
